| time (UTC) | temp C | wind direction | speed KPH | gust KPH | rain 1hr cm | rain 24hr cm | rain mn cm | humidity % | barometer mb |
| 20260905045029 | 25 | 0 | 0.0 | 1.6 | 0.00 | 0.00 | 0.00 | 84 | 1014.3 |
| 20260905044548 | 25 | 0 | 0.0 | 1.6 | 0.00 | 0.00 | 0.00 | 84 | 1014.5 |
| 20260905044028 | 25 | 0 | 0.0 | 1.6 | 0.00 | 0.00 | 0.00 | 84 | 1014.4 |
| 20260905043529 | 25 | 0 | 0.0 | 1.6 | 0.00 | 0.00 | 0.00 | 83 | 1014.5 |
| 20260905043054 | 25 | 0 | 0.0 | 1.6 | 0.00 | 0.00 | 0.00 | 83 | 1014.4 |
| 20260905042528 | 25 | 0 | 0.0 | 1.6 | 0.00 | 0.00 | 0.00 | 83 | 1014.5 |
| 20260905042029 | 25 | 0 | 0.0 | 1.6 | 0.00 | 0.00 | 0.00 | 83 | 1014.6 |
| 20260905041555 | 25 | 0 | 0.0 | 1.6 | 0.00 | 0.00 | 0.00 | 83 | 1014.5 |
| 20260905041029 | 25 | 0 | 0.0 | 3.2 | 0.00 | 0.00 | 0.00 | 84 | 1014.6 |
| 20260905040528 | 25 | 0 | 0.0 | 3.2 | 0.00 | 0.00 | 0.00 | 85 | 1014.5 |
| 20260905040054 | 25 | 0 | 0.0 | 0.0 | 0.00 | 0.00 | 0.00 | 86 | 1014.7 |
| 20260905035526 | 25 | 0 | 0.0 | 0.0 | 0.00 | 0.00 | 0.00 | 86 | 1014.7 |
| 20260905035029 | 25 | 0 | 0.0 | 0.0 | 0.00 | 0.00 | 0.00 | 86 | 1014.8 |
| 20260905034549 | 25 | 0 | 0.0 | 0.0 | 0.00 | 0.00 | 0.00 | 86 | 1014.8 |
| 20260905034029 | 25 | 0 | 0.0 | 0.0 | 0.00 | 0.00 | 0.00 | 86 | 1015.0 |
| 20260905033528 | 25 | 0 | 0.0 | 0.0 | 0.00 | 0.00 | 0.00 | 86 | 1015.0 |
| 20260905033046 | 25 | 0 | 0.0 | 0.0 | 0.00 | 0.00 | 0.00 | 86 | 1015.1 |
| 20260905032529 | 25 | 0 | 0.0 | 0.0 | 0.00 | 0.00 | 0.00 | 87 | 1015.0 |
| 20260905032028 | 25 | 0 | 0.0 | 0.0 | 0.00 | 0.00 | 0.00 | 87 | 1015.1 |
| 20260905031602 | 25 | 0 | 0.0 | 1.6 | 0.00 | 0.00 | 0.00 | 87 | 1015.1 |
| 20260905031029 | 25 | 0 | 0.0 | 1.6 | 0.00 | 0.00 | 0.00 | 87 | 1015.1 |
| 20260905030528 | 26 | 0 | 0.0 | 0.0 | 0.00 | 0.00 | 0.00 | 86 | 1015.0 |
| 20260905030049 | 26 | 0 | 0.0 | 0.0 | 0.00 | 0.00 | 0.00 | 86 | 1015.1 |
| 20260905025528 | 26 | 0 | 0.0 | 0.0 | 0.00 | 0.00 | 0.00 | 86 | 1015.0 |
| 20260905025028 | 26 | 0 | 0.0 | 3.2 | 0.00 | 0.00 | 0.00 | 86 | 1015.1 |
| 20260905024548 | 26 | 0 | 0.0 | 3.2 | 0.00 | 0.00 | 0.00 | 86 | 1015.0 |
| 20260905024028 | 26 | 0 | 0.0 | 6.4 | 0.00 | 0.00 | 0.00 | 85 | 1015.1 |
| 20260905023528 | 26 | 0 | 0.0 | 6.4 | 0.00 | 0.00 | 0.00 | 85 | 1015.0 |
| 20260905023055 | 26 | 162 | 1.6 | 6.4 | 0.00 | 0.00 | 0.00 | 85 | 1015.1 |
| 20260905022529 | 26 | 0 | 0.0 | 1.6 | 0.00 | 0.00 | 0.00 | 85 | 1015.0 |
| 20260905022029 | 26 | 0 | 0.0 | 1.6 | 0.00 | 0.00 | 0.00 | 85 | 1014.9 |
| 20260905021548 | 26 | 0 | 0.0 | 1.6 | 0.00 | 0.00 | 0.00 | 84 | 1015.0 |
| 20260905021027 | 27 | 0 | 0.0 | 1.6 | 0.00 | 0.00 | 0.00 | 84 | 1015.0 |
| 20260905020532 | 27 | 0 | 0.0 | 11.3 | 0.00 | 0.00 | 0.00 | 83 | 1015.1 |
| 20260905020057 | 27 | 0 | 0.0 | 11.3 | 0.00 | 0.00 | 0.00 | 83 | 1015.0 |
| 20260905015528 | 27 | 159 | 4.8 | 11.3 | 0.00 | 0.00 | 0.00 | 83 | 1015.0 |
| 20260905015029 | 27 | 144 | 0.0 | 3.2 | 0.00 | 0.00 | 0.00 | 81 | 1014.8 |
| 20260905014548 | 27 | 0 | 0.0 | 0.0 | 0.00 | 0.00 | 0.00 | 81 | 1014.7 |
| 20260905014029 | 27 | 0 | 0.0 | 0.0 | 0.00 | 0.00 | 0.00 | 81 | 1014.7 |
| 20260905013529 | 27 | 0 | 0.0 | 0.0 | 0.00 | 0.00 | 0.00 | 80 | 1014.7 |
| 20260905013048 | 27 | 0 | 0.0 | 0.0 | 0.00 | 0.00 | 0.00 | 80 | 1014.6 |
| 20260905012529 | 28 | 0 | 0.0 | 0.0 | 0.00 | 0.00 | 0.00 | 80 | 1014.6 |
| 20260905012029 | 28 | 0 | 0.0 | 0.0 | 0.00 | 0.00 | 0.00 | 79 | 1014.7 |
| 20260905011600 | 28 | 0 | 0.0 | 0.0 | 0.00 | 0.00 | 0.00 | 78 | 1014.6 |
| 20260905011028 | 28 | 0 | 0.0 | 0.0 | 0.00 | 0.00 | 0.00 | 77 | 1014.6 |
| 20260905010529 | 28 | 0 | 0.0 | 0.0 | 0.00 | 0.00 | 0.00 | 76 | 1014.6 |
| 20260905010105 | 28 | 0 | 0.0 | 3.2 | 0.00 | 0.00 | 0.00 | 76 | 1014.6 |
| 20260905005527 | 29 | 0 | 0.0 | 3.2 | 0.00 | 0.00 | 0.00 | 76 | 1014.6 |
| 20260905005029 | 29 | 144 | 0.0 | 3.2 | 0.00 | 0.00 | 0.00 | 75 | 1014.5 |
| 20260905004550 | 30 | 0 | 0.0 | 3.2 | 0.00 | 0.00 | 0.00 | 74 | 1014.5 |
| 20260905004033 | 30 | 0 | 0.0 | 3.2 | 0.00 | 0.00 | 0.00 | 74 | 1014.4 |
| 20260905003529 | 30 | 0 | 0.0 | 3.2 | 0.00 | 0.00 | 0.00 | 73 | 1014.6 |
| 20260905003100 | 30 | 144 | 1.6 | 4.8 | 0.00 | 0.00 | 0.00 | 73 | 1014.5 |
| 20260905002531 | 30 | 160 | 0.0 | 4.8 | 0.00 | 0.00 | 0.00 | 72 | 1014.5 |
| 20260905002029 | 31 | 147 | 1.6 | 4.8 | 0.00 | 0.00 | 0.00 | 71 | 1014.5 |
| 20260905001556 | 31 | 163 | 0.0 | 3.2 | 0.00 | 0.00 | 0.00 | 71 | 1014.6 |
| 20260905001028 | 31 | 182 | 1.6 | 3.2 | 0.00 | 0.00 | 0.00 | 70 | 1014.6 |
| 20260905000529 | 31 | 0 | 0.0 | 3.2 | 0.00 | 0.00 | 0.00 | 69 | 1014.6 |
| 20260904235526 | 32 | 182 | 0.0 | 6.4 | 0.00 | 0.00 | 0.00 | 68 | 1014.5 |
| 20260904235029 | 32 | 149 | 0.0 | 6.4 | 0.00 | 0.00 | 0.00 | 68 | 1014.6 |
| 20260904234550 | 32 | 0 | 0.0 | 4.8 | 0.00 | 0.00 | 0.00 | 67 | 1014.5 |
| 20260904234029 | 32 | 201 | 1.6 | 8.0 | 0.00 | 0.00 | 0.00 | 66 | 1014.5 |
| 20260904233530 | 32 | 185 | 3.2 | 8.0 | 0.00 | 0.00 | 0.00 | 66 | 1014.3 |
| 20260904233058 | 32 | 148 | 1.6 | 4.8 | 0.00 | 0.00 | 0.00 | 65 | 1014.1 |
| 20260904232529 | 32 | 0 | 0.0 | 4.8 | 0.00 | 0.00 | 0.00 | 65 | 1014.2 |
| 20260904232028 | 33 | 0 | 0.0 | 4.8 | 0.00 | 0.00 | 0.00 | 64 | 1014.1 |
| 20260904231557 | 33 | 196 | 1.6 | 8.0 | 0.00 | 0.00 | 0.00 | 63 | 1014.0 |
| 20260904231029 | 33 | 161 | 3.2 | 8.0 | 0.00 | 0.00 | 0.00 | 62 | 1013.9 |
| 20260904230530 | 33 | 160 | 1.6 | 9.7 | 0.00 | 0.00 | 0.00 | 62 | 1013.9 |
| 20260904230107 | 33 | 166 | 4.8 | 9.7 | 0.00 | 0.00 | 0.00 | 62 | 1013.9 |
| 20260904225528 | 33 | 126 | 3.2 | 8.0 | 0.00 | 0.00 | 0.00 | 61 | 1013.9 |
| 20260904225031 | 33 | 166 | 1.6 | 8.0 | 0.00 | 0.00 | 0.00 | 60 | 1013.8 |
| 20260904224549 | 33 | 194 | 3.2 | 9.7 | 0.00 | 0.00 | 0.00 | 60 | 1013.9 |
| 20260904224029 | 33 | 113 | 4.8 | 9.7 | 0.00 | 0.00 | 0.00 | 60 | 1014.0 |
| 20260904223527 | 33 | 0 | 1.6 | 4.8 | 0.00 | 0.00 | 0.00 | 58 | 1014.0 |
| 20260904223058 | 33 | 94 | 1.6 | 4.8 | 0.00 | 0.00 | 0.00 | 59 | 1014.1 |
| 20260904222529 | 33 | 0 | 0.0 | 3.2 | 0.00 | 0.00 | 0.00 | 58 | 1014.1 |
| 20260904222027 | 33 | 0 | 0.0 | 4.8 | 0.00 | 0.00 | 0.00 | 58 | 1014.1 |
| 20260904221600 | 33 | 0 | 0.0 | 6.4 | 0.00 | 0.00 | 0.00 | 57 | 1014.0 |
| 20260904221029 | 33 | 69 | 1.6 | 9.7 | 0.00 | 0.00 | 0.00 | 58 | 1014.1 |
| 20260904220528 | 34 | 86 | 3.2 | 11.3 | 0.00 | 0.00 | 0.00 | 57 | 1014.1 |
| 20260904220119 | 34 | 105 | 3.2 | 14.5 | 0.00 | 0.00 | 0.00 | 57 | 1014.2 |
| 20260904215531 | 34 | 112 | 4.8 | 14.5 | 0.00 | 0.00 | 0.00 | 57 | 1014.3 |
| 20260904215029 | 34 | 109 | 8.0 | 14.5 | 0.00 | 0.00 | 0.00 | 56 | 1014.4 |
| 20260904214550 | 35 | 123 | 4.8 | 12.9 | 0.00 | 0.00 | 0.00 | 55 | 1014.5 |
| 20260904214031 | 35 | 123 | 3.2 | 11.3 | 0.00 | 0.00 | 0.00 | 56 | 1014.4 |
| 20260904213529 | 35 | 107 | 3.2 | 12.9 | 0.00 | 0.00 | 0.00 | 56 | 1014.5 |
| 20260904213050 | 35 | 287 | 3.2 | 12.9 | 0.00 | 0.00 | 0.00 | 56 | 1014.4 |
| 20260904212534 | 35 | 360 | 3.2 | 12.9 | 0.00 | 0.00 | 0.00 | 56 | 1014.4 |
| 20260904212030 | 35 | 0 | 1.6 | 9.7 | 0.00 | 0.00 | 0.00 | 55 | 1014.4 |
| 20260904211556 | 35 | 0 | 3.2 | 12.9 | 0.00 | 0.00 | 0.00 | 56 | 1014.4 |
| 20260904211033 | 35 | 36 | 4.8 | 14.5 | 0.00 | 0.00 | 0.00 | 54 | 1014.3 |
| 20260904210529 | 35 | 56 | 6.4 | 14.5 | 0.00 | 0.00 | 0.00 | 53 | 1014.3 |
| 20260904210049 | 36 | 46 | 3.2 | 12.9 | 0.00 | 0.00 | 0.00 | 53 | 1014.4 |
| 20260904205529 | 36 | 66 | 1.6 | 6.4 | 0.00 | 0.00 | 0.00 | 51 | 1014.5 |
| 20260904205029 | 37 | 336 | 3.2 | 8.0 | 0.00 | 0.00 | 0.00 | 51 | 1014.4 |
| 20260904204556 | 37 | 13 | 1.6 | 8.0 | 0.00 | 0.00 | 0.00 | 49 | 1014.4 |
| 20260904204027 | 37 | 346 | 3.2 | 8.0 | 0.00 | 0.00 | 0.00 | 49 | 1014.4 |
| 20260904203530 | 37 | 355 | 3.2 | 6.4 | 0.00 | 0.00 | 0.00 | 49 | 1014.5 |
| 20260904203049 | 37 | 261 | 1.6 | 4.8 | 0.00 | 0.00 | 0.00 | 53 | 1014.6 |
| 20260904202529 | 37 | 257 | 1.6 | 4.8 | 0.00 | 0.00 | 0.00 | 49 | 1014.7 |
| 20260904202029 | 36 | 0 | 0.0 | 4.8 | 0.00 | 0.00 | 0.00 | 48 | 1014.7 |
| 20260904201555 | 36 | 250 | 1.6 | 8.0 | 0.00 | 0.00 | 0.00 | 49 | 1014.9 |
| 20260904201029 | 37 | 355 | 3.2 | 8.0 | 0.00 | 0.00 | 0.00 | 49 | 1014.8 |
| 20260904200530 | 37 | 60 | 3.2 | 14.5 | 0.00 | 0.00 | 0.00 | 49 | 1014.8 |
| 20260904195530 | 37 | 319 | 6.4 | 14.5 | 0.00 | 0.00 | 0.00 | 49 | 1015.0 |
| 20260904195028 | 37 | 69 | 0.0 | 8.0 | 0.00 | 0.00 | 0.00 | 48 | 1015.1 |
| 20260904194557 | 37 | 355 | 3.2 | 8.0 | 0.00 | 0.00 | 0.00 | 53 | 1015.2 |
| 20260904194030 | 37 | 171 | 1.6 | 4.8 | 0.00 | 0.00 | 0.00 | 50 | 1015.2 |
| 20260904193530 | 37 | 317 | 1.6 | 6.4 | 0.00 | 0.00 | 0.00 | 49 | 1015.3 |
| 20260904193049 | 37 | 340 | 1.6 | 8.0 | 0.00 | 0.00 | 0.00 | 49 | 1015.4 |
| 20260904192532 | 37 | 284 | 1.6 | 8.0 | 0.00 | 0.00 | 0.00 | 50 | 1015.5 |
| 20260904192029 | 37 | 323 | 3.2 | 8.0 | 0.00 | 0.00 | 0.00 | 50 | 1015.5 |
| 20260904191545 | 37 | 13 | 1.6 | 6.4 | 0.00 | 0.00 | 0.00 | 49 | 1015.6 |
| 20260904191033 | 37 | 289 | 1.6 | 9.7 | 0.00 | 0.00 | 0.00 | 54 | 1015.7 |
| 20260904190529 | 36 | 260 | 1.6 | 9.7 | 0.00 | 0.00 | 0.00 | 55 | 1015.7 |
| 20260904190055 | 36 | 327 | 3.2 | 8.0 | 0.00 | 0.00 | 0.00 | 53 | 1015.8 |
| 20260904185529 | 36 | 33 | 3.2 | 8.0 | 0.00 | 0.00 | 0.00 | 52 | 1015.9 |
| 20260904185029 | 36 | 302 | 1.6 | 4.8 | 0.00 | 0.00 | 0.00 | 56 | 1015.9 |
| 20260904184607 | 36 | 284 | 1.6 | 4.8 | 0.00 | 0.00 | 0.00 | 55 | 1016.1 |
| 20260904184029 | 36 | 346 | 1.6 | 4.8 | 0.00 | 0.00 | 0.00 | 54 | 1016.1 |
| 20260904183528 | 36 | 355 | 0.0 | 3.2 | 0.00 | 0.00 | 0.00 | 54 | 1016.2 |
| 20260904183103 | 36 | 267 | 1.6 | 3.2 | 0.00 | 0.00 | 0.00 | 53 | 1016.2 |
| 20260904182529 | 36 | 0 | 0.0 | 3.2 | 0.00 | 0.00 | 0.00 | 54 | 1016.2 |
| 20260904182035 | 36 | 276 | 1.6 | 6.4 | 0.00 | 0.00 | 0.00 | 52 | 1016.3 |
| 20260904181556 | 36 | 0 | 1.6 | 6.4 | 0.00 | 0.00 | 0.00 | 53 | 1016.3 |
| 20260904181030 | 36 | 101 | 3.2 | 8.0 | 0.00 | 0.00 | 0.00 | 52 | 1016.3 |
| 20260904180530 | 36 | 299 | 3.2 | 11.3 | 0.00 | 0.00 | 0.00 | 54 | 1016.3 |
| 20260904180050 | 36 | 28 | 3.2 | 12.9 | 0.00 | 0.00 | 0.00 | 52 | 1016.4 |
| 20260904175528 | 36 | 89 | 3.2 | 12.9 | 0.00 | 0.00 | 0.00 | 53 | 1016.4 |
| 20260904175029 | 36 | 86 | 1.6 | 8.0 | 0.00 | 0.00 | 0.00 | 55 | 1016.4 |
| 20260904174618 | 36 | 168 | 3.2 | 6.4 | 0.00 | 0.00 | 0.00 | 55 | 1016.5 |
| 20260904174030 | 35 | 85 | 1.6 | 6.4 | 0.00 | 0.00 | 0.00 | 55 | 1016.4 |
| 20260904173529 | 35 | 0 | 0.0 | 4.8 | 0.00 | 0.00 | 0.00 | 54 | 1016.5 |
| 20260904173056 | 35 | 0 | 1.6 | 4.8 | 0.00 | 0.00 | 0.00 | 53 | 1016.6 |
| 20260904172532 | 35 | 11 | 0.0 | 1.6 | 0.00 | 0.00 | 0.00 | 56 | 1016.7 |
| 20260904172030 | 36 | 0 | 0.0 | 1.6 | 0.00 | 0.00 | 0.00 | 54 | 1016.7 |
| 20260904171602 | 36 | 0 | 0.0 | 4.8 | 0.00 | 0.00 | 0.00 | 55 | 1016.9 |
| 20260904171030 | 36 | 0 | 0.0 | 8.0 | 0.00 | 0.00 | 0.00 | 52 | 1016.9 |
| 20260904170529 | 36 | 301 | 1.6 | 8.0 | 0.00 | 0.00 | 0.00 | 52 | 1017.0 |
| 20260904170050 | 36 | 298 | 3.2 | 8.0 | 0.00 | 0.00 | 0.00 | 52 | 1017.0 |
| 20260904165529 | 37 | 0 | 1.6 | 6.4 | 0.00 | 0.00 | 0.00 | 52 | 1017.0 |
| 20260904165030 | 36 | 330 | 1.6 | 8.0 | 0.00 | 0.00 | 0.00 | 53 | 1017.2 |
| 20260904164547 | 36 | 225 | 0.0 | 8.0 | 0.00 | 0.00 | 0.00 | 55 | 1017.2 |
| 20260904164029 | 36 | 325 | 3.2 | 8.0 | 0.00 | 0.00 | 0.00 | 55 | 1017.1 |
| 20260904163530 | 36 | 0 | 1.6 | 8.0 | 0.00 | 0.00 | 0.00 | 54 | 1017.2 |
| 20260904163056 | 36 | 5 | 3.2 | 6.4 | 0.00 | 0.00 | 0.00 | 52 | 1017.1 |
| 20260904162530 | 36 | 114 | 1.6 | 12.9 | 0.00 | 0.00 | 0.00 | 54 | 1017.1 |
| 20260904162029 | 36 | 219 | 3.2 | 12.9 | 0.00 | 0.00 | 0.00 | 57 | 1017.2 |
| 20260904161604 | 36 | 128 | 3.2 | 8.0 | 0.00 | 0.00 | 0.00 | 56 | 1017.2 |
| 20260904161028 | 36 | 61 | 3.2 | 8.0 | 0.00 | 0.00 | 0.00 | 55 | 1017.3 |
| 20260904160529 | 36 | 47 | 3.2 | 8.0 | 0.00 | 0.00 | 0.00 | 55 | 1017.3 |
| 20260904160049 | 36 | 46 | 1.6 | 8.0 | 0.00 | 0.00 | 0.00 | 55 | 1017.4 |
| 20260904155530 | 36 | 179 | 3.2 | 8.0 | 0.00 | 0.00 | 0.00 | 55 | 1017.4 |
| 20260904155029 | 36 | 262 | 1.6 | 4.8 | 0.00 | 0.00 | 0.00 | 58 | 1017.3 |
| 20260904154557 | 36 | 346 | 1.6 | 4.8 | 0.00 | 0.00 | 0.00 | 55 | 1017.3 |
| 20260904154118 | 36 | 278 | 1.6 | 4.8 | 0.00 | 0.00 | 0.00 | 58 | 1017.3 |
| 20260904153531 | 36 | 0 | 1.6 | 4.8 | 0.00 | 0.00 | 0.00 | 58 | 1017.4 |
| 20260904153126 | 35 | 71 | 1.6 | 4.8 | 0.00 | 0.00 | 0.00 | 59 | 1017.3 |
| 20260904152528 | 35 | 311 | 1.6 | 4.8 | 0.00 | 0.00 | 0.00 | 58 | 1017.3 |
| 20260904152029 | 35 | 19 | 1.6 | 4.8 | 0.00 | 0.00 | 0.00 | 58 | 1017.4 |
| 20260904151558 | 35 | 313 | 1.6 | 4.8 | 0.00 | 0.00 | 0.00 | 58 | 1017.3 |
| 20260904151029 | 35 | 355 | 1.6 | 4.8 | 0.00 | 0.00 | 0.00 | 57 | 1017.3 |
| 20260904150529 | 35 | 259 | 1.6 | 6.4 | 0.00 | 0.00 | 0.00 | 58 | 1017.2 |
| 20260904150051 | 35 | 136 | 1.6 | 6.4 | 0.00 | 0.00 | 0.00 | 58 | 1017.4 |
| 20260904145529 | 35 | 217 | 1.6 | 6.4 | 0.00 | 0.00 | 0.00 | 62 | 1017.3 |
| 20260904145028 | 35 | 225 | 3.2 | 6.4 | 0.00 | 0.00 | 0.00 | 60 | 1017.3 |
| 20260904144559 | 35 | 207 | 1.6 | 6.4 | 0.00 | 0.00 | 0.00 | 62 | 1017.2 |
| 20260904144029 | 35 | 0 | 1.6 | 4.8 | 0.00 | 0.00 | 0.00 | 62 | 1017.2 |
| 20260904143529 | 35 | 224 | 0.0 | 3.2 | 0.00 | 0.00 | 0.00 | 62 | 1017.2 |
| 20260904143055 | 34 | 297 | 0.0 | 4.8 | 0.00 | 0.00 | 0.00 | 63 | 1017.2 |
| 20260904142528 | 33 | 0 | 0.0 | 4.8 | 0.00 | 0.00 | 0.00 | 64 | 1017.2 |
| 20260904142032 | 33 | 224 | 0.0 | 4.8 | 0.00 | 0.00 | 0.00 | 66 | 1017.1 |
| 20260904141557 | 33 | 187 | 0.0 | 3.2 | 0.00 | 0.00 | 0.00 | 66 | 1017.2 |
| 20260904141028 | 32 | 0 | 0.0 | 3.2 | 0.00 | 0.00 | 0.00 | 69 | 1017.1 |
| 20260904140527 | 32 | 0 | 0.0 | 3.2 | 0.00 | 0.00 | 0.00 | 68 | 1017.1 |
| 20260904140052 | 32 | 249 | 0.0 | 3.2 | 0.00 | 0.00 | 0.00 | 70 | 1017.1 |
| 20260904135532 | 32 | 107 | 0.0 | 3.2 | 0.00 | 0.00 | 0.00 | 70 | 1017.1 |
| 20260904135030 | 31 | 0 | 0.0 | 3.2 | 0.00 | 0.00 | 0.00 | 72 | 1017.0 |
| 20260904134605 | 31 | 0 | 0.0 | 3.2 | 0.00 | 0.00 | 0.00 | 73 | 1017.1 |
| 20260904134029 | 31 | 0 | 1.6 | 4.8 | 0.00 | 0.00 | 0.00 | 74 | 1017.1 |
| 20260904133530 | 31 | 107 | 1.6 | 4.8 | 0.00 | 0.00 | 0.00 | 75 | 1017.0 |
| 20260904133104 | 30 | 102 | 0.0 | 4.8 | 0.00 | 0.00 | 0.00 | 75 | 1017.0 |
| 20260904132528 | 30 | 101 | 1.6 | 4.8 | 0.00 | 0.00 | 0.00 | 76 | 1016.9 |
| 20260904132028 | 30 | 178 | 1.6 | 3.2 | 0.00 | 0.00 | 0.00 | 77 | 1017.0 |
| 20260904131558 | 29 | 0 | 1.6 | 3.2 | 0.00 | 0.00 | 0.00 | 79 | 1017.0 |
| 20260904131028 | 28 | 153 | 1.6 | 3.2 | 0.00 | 0.00 | 0.00 | 81 | 1017.0 |
| 20260904130528 | 28 | 0 | 0.0 | 3.2 | 0.00 | 0.00 | 0.00 | 81 | 1016.9 |
| 20260904130052 | 27 | 153 | 1.6 | 3.2 | 0.00 | 0.00 | 0.00 | 84 | 1016.9 |
| 20260904125529 | 27 | 153 | 0.0 | 1.6 | 0.00 | 0.00 | 0.00 | 86 | 1017.0 |
| 20260904125032 | 26 | 0 | 0.0 | 1.6 | 0.00 | 0.00 | 0.00 | 87 | 1016.8 |
| 20260904124557 | 26 | 0 | 0.0 | 0.0 | 0.00 | 0.00 | 0.00 | 89 | 1016.7 |
| 20260904124030 | 25 | 0 | 0.0 | 0.0 | 0.00 | 0.00 | 0.00 | 93 | 1016.8 |
| 20260904123529 | 25 | 0 | 0.0 | 0.0 | 0.00 | 0.00 | 0.00 | 95 | 1016.6 |
| 20260904123056 | 24 | 0 | 0.0 | 0.0 | 0.00 | 0.00 | 0.00 | 95 | 1016.7 |
| 20260904122529 | 24 | 0 | 0.0 | 0.0 | 0.00 | 0.00 | 0.00 | 97 | 1016.7 |
| 20260904122028 | 23 | 0 | 0.0 | 0.0 | 0.00 | 0.00 | 0.00 | 97 | 1016.6 |
| 20260904121559 | 23 | 0 | 0.0 | 1.6 | 0.00 | 0.00 | 0.00 | 98 | 1016.5 |
| 20260904121028 | 23 | 0 | 0.0 | 1.6 | 0.00 | 0.00 | 0.00 | 98 | 1016.6 |
| 20260904120529 | 22 | 0 | 0.0 | 0.0 | 0.00 | 0.00 | 0.00 | 98 | 1016.5 |
| 20260904115529 | 22 | 0 | 0.0 | 0.0 | 0.00 | 0.00 | 0.00 | 97 | 1016.5 |
| 20260904115029 | 22 | 0 | 0.0 | 0.0 | 0.00 | 0.00 | 0.00 | 97 | 1016.4 |
| 20260904114559 | 22 | 0 | 0.0 | 0.0 | 0.00 | 0.00 | 0.00 | 97 | 1016.3 |
| 20260904114030 | 22 | 0 | 0.0 | 0.0 | 0.00 | 0.00 | 0.00 | 96 | 1016.3 |
| 20260904113530 | 22 | 0 | 0.0 | 0.0 | 0.00 | 0.00 | 0.00 | 97 | 1016.2 |
| 20260904113058 | 22 | 0 | 0.0 | 0.0 | 0.00 | 0.00 | 0.00 | 96 | 1016.1 |
| 20260904112529 | 22 | 0 | 0.0 | 0.0 | 0.00 | 0.00 | 0.00 | 96 | 1016.2 |
| 20260904112031 | 22 | 0 | 0.0 | 0.0 | 0.00 | 0.00 | 0.00 | 96 | 1016.1 |
| 20260904111558 | 22 | 0 | 0.0 | 0.0 | 0.00 | 0.00 | 0.00 | 96 | 1016.1 |
| 20260904111040 | 22 | 0 | 0.0 | 0.0 | 0.00 | 0.00 | 0.00 | 96 | 1016.0 |
| 20260904110528 | 22 | 0 | 0.0 | 0.0 | 0.00 | 0.00 | 0.00 | 96 | 1016.0 |
| 20260904110056 | 22 | 0 | 0.0 | 0.0 | 0.00 | 0.00 | 0.00 | 96 | 1015.8 |
| 20260904105528 | 22 | 0 | 0.0 | 0.0 | 0.00 | 0.00 | 0.00 | 96 | 1015.8 |
| 20260904105029 | 22 | 0 | 0.0 | 0.0 | 0.00 | 0.00 | 0.00 | 96 | 1015.8 |
| 20260904104549 | 22 | 0 | 0.0 | 0.0 | 0.00 | 0.00 | 0.00 | 96 | 1015.8 |
| 20260904104029 | 22 | 0 | 0.0 | 0.0 | 0.00 | 0.00 | 0.00 | 97 | 1015.7 |
| 20260904103528 | 22 | 0 | 0.0 | 0.0 | 0.00 | 0.00 | 0.00 | 96 | 1015.6 |
| 20260904103102 | 22 | 0 | 0.0 | 0.0 | 0.00 | 0.00 | 0.00 | 96 | 1015.6 |
| 20260904102529 | 22 | 0 | 0.0 | 0.0 | 0.00 | 0.00 | 0.00 | 96 | 1015.5 |
| 20260904102028 | 22 | 0 | 0.0 | 0.0 | 0.00 | 0.00 | 0.00 | 96 | 1015.4 |
| 20260904101558 | 22 | 0 | 0.0 | 0.0 | 0.00 | 0.00 | 0.00 | 96 | 1015.4 |
| 20260904101028 | 22 | 0 | 0.0 | 0.0 | 0.00 | 0.00 | 0.00 | 96 | 1015.4 |
| 20260904100528 | 22 | 0 | 0.0 | 0.0 | 0.00 | 0.00 | 0.00 | 96 | 1015.4 |
| 20260904100053 | 22 | 0 | 0.0 | 0.0 | 0.00 | 0.00 | 0.00 | 96 | 1015.5 |
| 20260904095529 | 23 | 0 | 0.0 | 0.0 | 0.00 | 0.00 | 0.00 | 96 | 1015.4 |
| 20260904095030 | 23 | 0 | 0.0 | 0.0 | 0.00 | 0.00 | 0.00 | 95 | 1015.5 |
| 20260904094610 | 23 | 0 | 0.0 | 0.0 | 0.00 | 0.00 | 0.00 | 96 | 1015.4 |
| 20260904094029 | 23 | 0 | 0.0 | 0.0 | 0.00 | 0.00 | 0.00 | 96 | 1015.4 |
| 20260904093528 | 23 | 0 | 0.0 | 0.0 | 0.00 | 0.00 | 0.00 | 96 | 1015.4 |
| 20260904093059 | 23 | 0 | 0.0 | 0.0 | 0.00 | 0.00 | 0.00 | 96 | 1015.5 |
| 20260904092530 | 23 | 0 | 0.0 | 0.0 | 0.00 | 0.00 | 0.00 | 96 | 1015.3 |
| 20260904092031 | 23 | 0 | 0.0 | 0.0 | 0.00 | 0.00 | 0.00 | 96 | 1015.4 |
| 20260904091552 | 23 | 0 | 0.0 | 0.0 | 0.00 | 0.00 | 0.00 | 96 | 1015.5 |
| 20260904091029 | 23 | 0 | 0.0 | 0.0 | 0.00 | 0.00 | 0.00 | 96 | 1015.5 |
| 20260904090528 | 23 | 0 | 0.0 | 0.0 | 0.00 | 0.00 | 0.00 | 96 | 1015.5 |
| 20260904085528 | 23 | 0 | 0.0 | 0.0 | 0.00 | 0.00 | 0.00 | 95 | 1015.4 |
| 20260904085028 | 23 | 0 | 0.0 | 0.0 | 0.00 | 0.00 | 0.00 | 95 | 1015.5 |
| 20260904084601 | 23 | 0 | 0.0 | 0.0 | 0.00 | 0.00 | 0.00 | 95 | 1015.4 |
| 20260904084030 | 23 | 0 | 0.0 | 0.0 | 0.00 | 0.00 | 0.00 | 95 | 1015.5 |
| 20260904083529 | 23 | 0 | 0.0 | 0.0 | 0.00 | 0.00 | 0.00 | 95 | 1015.4 |
| 20260904083104 | 23 | 0 | 0.0 | 0.0 | 0.00 | 0.00 | 0.00 | 95 | 1015.4 |
| 20260904082528 | 23 | 0 | 0.0 | 1.6 | 0.00 | 0.00 | 0.00 | 95 | 1015.5 |
| 20260904082029 | 23 | 0 | 0.0 | 1.6 | 0.00 | 0.00 | 0.00 | 95 | 1015.5 |
| 20260904081549 | 23 | 0 | 0.0 | 1.6 | 0.00 | 0.00 | 0.00 | 94 | 1015.4 |
| 20260904081028 | 23 | 0 | 0.0 | 0.0 | 0.00 | 0.00 | 0.00 | 95 | 1015.4 |
| 20260904080530 | 23 | 0 | 0.0 | 0.0 | 0.00 | 0.00 | 0.00 | 95 | 1015.4 |
| 20260904080059 | 23 | 0 | 0.0 | 0.0 | 0.00 | 0.00 | 0.00 | 95 | 1015.4 |
| 20260904075528 | 23 | 0 | 0.0 | 0.0 | 0.00 | 0.00 | 0.00 | 95 | 1015.4 |
| 20260904075031 | 23 | 0 | 0.0 | 0.0 | 0.00 | 0.00 | 0.00 | 95 | 1015.3 |
| 20260904074552 | 23 | 0 | 0.0 | 0.0 | 0.00 | 0.00 | 0.00 | 95 | 1015.3 |
| 20260904074028 | 23 | 0 | 0.0 | 0.0 | 0.00 | 0.00 | 0.00 | 95 | 1015.3 |
| 20260904073531 | 23 | 0 | 0.0 | 0.0 | 0.00 | 0.00 | 0.00 | 94 | 1015.3 |
| 20260904073057 | 23 | 0 | 0.0 | 0.0 | 0.00 | 0.00 | 0.00 | 94 | 1015.3 |
| 20260904072529 | 23 | 0 | 0.0 | 0.0 | 0.00 | 0.00 | 0.00 | 94 | 1015.3 |
| 20260904072029 | 23 | 0 | 0.0 | 0.0 | 0.00 | 0.00 | 0.00 | 94 | 1015.3 |
| 20260904071616 | 23 | 0 | 0.0 | 0.0 | 0.00 | 0.00 | 0.00 | 94 | 1015.4 |
| 20260904071030 | 23 | 0 | 0.0 | 0.0 | 0.00 | 0.00 | 0.00 | 94 | 1015.3 |
| 20260904070530 | 23 | 0 | 0.0 | 0.0 | 0.00 | 0.00 | 0.00 | 94 | 1015.4 |
| 20260904070055 | 23 | 0 | 0.0 | 0.0 | 0.00 | 0.00 | 0.00 | 94 | 1015.4 |
| 20260904065529 | 23 | 0 | 0.0 | 0.0 | 0.00 | 0.00 | 0.00 | 94 | 1015.4 |
| 20260904065030 | 23 | 0 | 0.0 | 0.0 | 0.00 | 0.00 | 0.00 | 94 | 1015.5 |
| 20260904064554 | 23 | 0 | 0.0 | 0.0 | 0.00 | 0.00 | 0.00 | 94 | 1015.4 |
| 20260904064029 | 24 | 0 | 0.0 | 0.0 | 0.00 | 0.00 | 0.00 | 94 | 1015.5 |
| 20260904063529 | 24 | 0 | 0.0 | 0.0 | 0.00 | 0.00 | 0.00 | 94 | 1015.6 |
| 20260904063053 | 24 | 0 | 0.0 | 0.0 | 0.00 | 0.00 | 0.00 | 94 | 1015.6 |
| 20260904062529 | 24 | 0 | 0.0 | 0.0 | 0.00 | 0.00 | 0.00 | 94 | 1015.5 |
| 20260904062029 | 24 | 0 | 0.0 | 0.0 | 0.00 | 0.00 | 0.00 | 93 | 1015.6 |
| 20260904061604 | 24 | 0 | 0.0 | 0.0 | 0.00 | 0.00 | 0.00 | 93 | 1015.6 |
| 20260904061029 | 24 | 0 | 0.0 | 0.0 | 0.00 | 0.00 | 0.00 | 94 | 1015.7 |
| 20260904060531 | 24 | 0 | 0.0 | 0.0 | 0.00 | 0.00 | 0.00 | 93 | 1015.7 |
| 20260904060057 | 24 | 0 | 0.0 | 0.0 | 0.00 | 0.00 | 0.00 | 92 | 1015.7 |
| 20260904055528 | 24 | 0 | 0.0 | 0.0 | 0.00 | 0.00 | 0.00 | 93 | 1015.7 |
| 20260904055029 | 24 | 0 | 0.0 | 1.6 | 0.00 | 0.00 | 0.00 | 93 | 1015.7 |
| 20260904054551 | 24 | 0 | 0.0 | 1.6 | 0.00 | 0.00 | 0.00 | 92 | 1015.7 |
| 20260904054028 | 24 | 0 | 0.0 | 1.6 | 0.00 | 0.00 | 0.00 | 92 | 1015.7 |
| 20260904053527 | 24 | 0 | 0.0 | 0.0 | 0.00 | 0.00 | 0.00 | 92 | 1015.7 |
| 20260904053136 | 25 | 0 | 0.0 | 0.0 | 0.00 | 0.00 | 0.00 | 92 | 1015.7 |
| 20260904052527 | 25 | 0 | 0.0 | 0.0 | 0.00 | 0.00 | 0.00 | 92 | 1015.7 |
| 20260904052031 | 25 | 0 | 0.0 | 0.0 | 0.00 | 0.00 | 0.00 | 91 | 1015.6 |
| 20260904051551 | 25 | 0 | 0.0 | 0.0 | 0.00 | 0.00 | 0.00 | 91 | 1015.6 |
| 20260904051028 | 25 | 0 | 0.0 | 1.6 | 0.00 | 0.00 | 0.00 | 92 | 1015.7 |
| 20260904050528 | 25 | 0 | 0.0 | 1.6 | 0.00 | 0.00 | 0.00 | 91 | 1015.7 |
| 20260904050058 | 25 | 0 | 0.0 | 0.0 | 0.00 | 0.00 | 0.00 | 90 | 1015.6 |
| 20260904045529 | 25 | 0 | 0.0 | 0.0 | 0.00 | 0.00 | 0.00 | 90 | 1015.7 |